Location: *
(50.5492°N, 7.7469°E)
Time: 11:55:36
(UTC+00:00)

STARLINK-28 - Pass Details

Date: 21 October 2019
Orbit: 548 x 551 km, 53.0° (Epoch: 16 November)

Event Time Altitude Azimuth Distance (km) Brightness Sun altitude
Rises 17:29:36 0° 272° (W) 2,718 9.4 -10.8°
Reaches altitude 10° 17:31:51 10° 276° (W) 1,825 7.8 -11.2°
Maximum altitude 17:35:58 61° 356° (N) 629 3.9 -11.8°
Enters shadow 17:38:54 18° 74° (ENE) 1,377 5.0 -12.3°
